When you browse on this site, cookies collect data to enhance your experience and personalize the content and advertising you see.
Visit our Privacy Policy to learn more. By continuing to use the site, you agree to this use of cookies and data.
  • In Romania
  • List of Countries
  • For 7 days
  • Water Temperature
  • Satellite Maps
  • Weather Map
  • Weather Widgets
  • user-avatar
    Login

    Hourly Weather Ramushki

    Today, 26 May, Sunday

    Time Temperature Precipitation Wind Pressure Humidity
    00:00 +8°C° 0 mm 2 mps 760 mmHg 65%
    01:00 +8°C° 0 mm 3 mps 760 mmHg 67%
    02:00 +8°C° 0 mm 3 mps 760 mmHg 68%
    03:00 +7°C° 0 mm 3 mps 760 mmHg 69%
    04:00 +9°C° 0 mm 3 mps 760 mmHg 67%
    05:00 +10°C° 0 mm 4 mps 760 mmHg 65%
    06:00 +11°C° 0 mm 4 mps 760 mmHg 63%
    07:00 +13°C° 0 mm 5 mps 759 mmHg 59%
    08:00 +15°C° 0 mm 5 mps 759 mmHg 54%
    09:00 +17°C° 0 mm 5 mps 759 mmHg 51%
    10:00 +20°C° 0 mm 5 mps 758 mmHg 48%
    11:00 +21°C° 0 mm 5 mps 758 mmHg 46%
    12:00 +23°C° 0 mm 5 mps 757 mmHg 43%
    13:00 +23°C° 0 mm 6 mps 757 mmHg 46%
    14:00 +24°C° 0 mm 6 mps 757 mmHg 48%
    15:00 +24°C° 0 mm 7 mps 756 mmHg 51%
    16:00 +22°C° 0.2 mm 6 mps 756 mmHg 61%
    17:00 +20°C° 0.2 mm 5 mps 756 mmHg 71%
    18:00 +17°C° 0.2 mm 5 mps 755 mmHg 82%
    19:00 +17°C° 0.7 mm 5 mps 755 mmHg 83%
    20:00 +16°C° 0.7 mm 5 mps 755 mmHg 84%
    21:00 +17°C° 0.7 mm 4 mps 755 mmHg 85%
    22:00 +16°C° 0.6 mm 5 mps 755 mmHg 84%
    23:00 +15°C° 0.6 mm 5 mps 754 mmHg 83%

    Tomorrow, 27 May, Monday

    Time Temperature Precipitation Wind Pressure Humidity
    00:00 +15°C° 0.6 mm 5 mps 754 mmHg 82%
    01:00 +15°C° 0.3 mm 5 mps 754 mmHg 83%
    02:00 +15°C° 0.3 mm 5 mps 754 mmHg 84%
    03:00 +14°C° 0.3 mm 5 mps 754 mmHg 85%
    04:00 +15°C° 0.1 mm 5 mps 754 mmHg 84%
    05:00 +15°C° 0.1 mm 6 mps 754 mmHg 82%
    06:00 +16°C° 0.1 mm 6 mps 754 mmHg 81%
    07:00 +17°C° 0.3 mm 6 mps 754 mmHg 78%
    08:00 +20°C° 0.3 mm 6 mps 754 mmHg 76%
    09:00 +21°C° 0.3 mm 6 mps 754 mmHg 73%
    10:00 +21°C° 0.4 mm 6 mps 754 mmHg 72%
    11:00 +21°C° 0.4 mm 6 mps 754 mmHg 72%
    12:00 +21°C° 0.4 mm 6 mps 754 mmHg 72%
    13:00 +22°C° 1.1 mm 6 mps 754 mmHg 70%
    14:00 +23°C° 1.1 mm 6 mps 754 mmHg 68%
    15:00 +23°C° 1.1 mm 6 mps 754 mmHg 67%
    16:00 +23°C° 0.6 mm 5 mps 754 mmHg 70%
    17:00 +22°C° 0.6 mm 4 mps 754 mmHg 73%
    18:00 +22°C° 0.6 mm 3 mps 755 mmHg 76%
    19:00 +21°C° 0.1 mm 2 mps 755 mmHg 80%
    20:00 +19°C° 0.1 mm 2 mps 755 mmHg 84%
    21:00 +18°C° 0.1 mm 2 mps 756 mmHg 87%
    22:00 +18°C° 0 mm 2 mps 756 mmHg 88%
    23:00 +18°C° 0 mm 1 mps 756 mmHg 89%

    Day after tomorrow, 28 May, Tuesday

    Time Temperature Precipitation Wind Pressure Humidity
    00:00 +18°C° 0 mm 1 mps 757 mmHg 90%
    01:00 +16°C° 0 mm 2 mps 757 mmHg 90%
    02:00 +16°C° 0 mm 2 mps 757 mmHg 91%
    03:00 +16°C° 0 mm 2 mps 758 mmHg 91%
    04:00 +16°C° 0 mm 2 mps 758 mmHg 87%
    05:00 +17°C° 0 mm 3 mps 759 mmHg 83%
    06:00 +17°C° 0 mm 3 mps 759 mmHg 79%
    07:00 +19°C° 0 mm 3 mps 759 mmHg 72%
    08:00 +20°C° 0 mm 3 mps 759 mmHg 65%
    09:00 +22°C° 0 mm 3 mps 760 mmHg 58%
    10:00 +22°C° 0 mm 3 mps 760 mmHg 54%
    11:00 +24°C° 0 mm 3 mps 760 mmHg 51%
    12:00 +25°C° 0 mm 3 mps 760 mmHg 47%
    13:00 +25°C° 0 mm 3 mps 760 mmHg 48%
    14:00 +25°C° 0 mm 3 mps 760 mmHg 49%
    15:00 +25°C° 0 mm 3 mps 760 mmHg 50%
    16:00 +25°C° 0 mm 3 mps 760 mmHg 54%
    17:00 +24°C° 0 mm 2 mps 760 mmHg 58%
    18:00 +24°C° 0 mm 2 mps 760 mmHg 63%
    19:00 +21°C° 0 mm 2 mps 761 mmHg 68%
    20:00 +21°C° 0 mm 1 mps 761 mmHg 72%
    21:00 +19°C° 0 mm 1 mps 761 mmHg 77%
    22:00 +19°C° 0 mm 1 mps 762 mmHg 79%
    23:00 +19°C° 0 mm 1 mps 762 mmHg 80%

    29 May, Wednesday

    Time Temperature Precipitation Wind Pressure Humidity
    00:00 +18°C° 0 mm 1 mps 762 mmHg 82%
    01:00 +18°C° 0 mm 1 mps 762 mmHg 83%
    02:00 +18°C° 0 mm 1 mps 762 mmHg 83%
    03:00 +18°C° 0 mm 1 mps 762 mmHg 84%
    04:00 +19°C° 0 mm 1 mps 763 mmHg 81%
    05:00 +20°C° 0 mm 1 mps 763 mmHg 78%
    06:00 +21°C° 0 mm 1 mps 763 mmHg 76%
    07:00 +22°C° 0 mm 1 mps 763 mmHg 72%
    08:00 +24°C° 0 mm 1 mps 763 mmHg 67%
    09:00 +25°C° 0 mm 1 mps 763 mmHg 63%
    10:00 +26°C° 0 mm 1 mps 763 mmHg 59%
    11:00 +27°C° 0 mm 1 mps 763 mmHg 56%
    12:00 +28°C° 0 mm 1 mps 763 mmHg 52%
    13:00 +28°C° 0 mm 1 mps 762 mmHg 51%
    14:00 +28°C° 0 mm 1 mps 762 mmHg 50%
    15:00 +29°C° 0 mm 1 mps 762 mmHg 49%
    16:00 +28°C° 0 mm 1 mps 762 mmHg 52%
    17:00 +28°C° 0 mm 1 mps 762 mmHg 56%
    18:00 +27°C° 0 mm 2 mps 762 mmHg 60%
    19:00 +25°C° 0 mm 1 mps 762 mmHg 65%
    20:00 +24°C° 0 mm 1 mps 762 mmHg 69%
    21:00 +22°C° 0 mm 1 mps 763 mmHg 73%
    22:00 +22°C° 0 mm 1 mps 763 mmHg 75%
    23:00 +19°C° 0 mm 0 mps 763 mmHg 77%

    30 May, Thursday

    Time Temperature Precipitation Wind Pressure Humidity
    00:00 +18°C° 0 mm 0 mps 763 mmHg 79%
    01:00 +18°C° 0 mm 0 mps 763 mmHg 80%
    02:00 +18°C° 0 mm 0 mps 763 mmHg 80%
    03:00 +20°C° 0 mm 1 mps 763 mmHg 81%
    04:00 +21°C° 0 mm 1 mps 763 mmHg 77%
    05:00 +22°C° 0 mm 1 mps 763 mmHg 74%
    06:00 +23°C° 0 mm 1 mps 763 mmHg 71%
    07:00 +24°C° 0 mm 1 mps 763 mmHg 66%
    08:00 +26°C° 0 mm 1 mps 763 mmHg 62%
    09:00 +27°C° 0 mm 1 mps 763 mmHg 58%
    10:00 +28°C° 0 mm 1 mps 763 mmHg 54%
    11:00 +29°C° 0 mm 1 mps 763 mmHg 51%
    12:00 +30°C° 0 mm 1 mps 763 mmHg 48%
    13:00 +30°C° 0 mm 1 mps 762 mmHg 47%
    14:00 +30°C° 0 mm 2 mps 762 mmHg 46%
    15:00 +31°C° 0 mm 2 mps 762 mmHg 46%
    16:00 +30°C° 0 mm 2 mps 762 mmHg 50%
    17:00 +30°C° 0 mm 2 mps 762 mmHg 54%
    18:00 +29°C° 0 mm 1 mps 762 mmHg 58%
    19:00 +27°C° 0 mm 1 mps 762 mmHg 63%
    20:00 +26°C° 0 mm 1 mps 762 mmHg 68%
    21:00 +24°C° 0 mm 1 mps 762 mmHg 72%
    22:00 +23°C° 0 mm 1 mps 762 mmHg 74%
    23:00 +23°C° 0 mm 1 mps 762 mmHg 77%

    31 May, Friday

    Time Temperature Precipitation Wind Pressure Humidity
    00:00 +22°C° 0 mm 1 mps 762 mmHg 79%
    01:00 +22°C° 0 mm 1 mps 762 mmHg 80%
    02:00 +22°C° 0 mm 1 mps 763 mmHg 82%
    03:00 +21°C° 0 mm 1 mps 763 mmHg 83%
    04:00 +22°C° 0 mm 1 mps 763 mmHg 80%
    05:00 +23°C° 0 mm 1 mps 763 mmHg 78%
    06:00 +24°C° 0 mm 1 mps 763 mmHg 75%
    07:00 +26°C° 0 mm 1 mps 763 mmHg 70%
    08:00 +27°C° 0 mm 1 mps 763 mmHg 65%
    09:00 +28°C° 0 mm 1 mps 762 mmHg 60%
    10:00 +29°C° 0 mm 2 mps 762 mmHg 56%
    11:00 +30°C° 0 mm 2 mps 762 mmHg 52%
    12:00 +31°C° 0 mm 2 mps 761 mmHg 48%
    13:00 +31°C° 0 mm 2 mps 761 mmHg 47%
    14:00 +31°C° 0 mm 2 mps 761 mmHg 46%
    15:00 +32°C° 0 mm 2 mps 761 mmHg 45%
    16:00 +31°C° 0 mm 2 mps 761 mmHg 49%
    17:00 +30°C° 0 mm 2 mps 761 mmHg 53%
    18:00 +30°C° 0 mm 2 mps 761 mmHg 57%
    19:00 +28°C° 0 mm 2 mps 761 mmHg 61%
    20:00 +26°C° 0 mm 2 mps 761 mmHg 65%
    21:00 +25°C° 0 mm 2 mps 761 mmHg 68%
    22:00 +24°C° 0 mm 1 mps 761 mmHg 70%
    23:00 +24°C° 0 mm 1 mps 761 mmHg 72%
    Show more